Weather past 2 weeks in Cayenne, French Guiana

Now
75 °F

Mild.


Feels Like: 74 °F
Forecast: 78 / 85 °F
Wind: No wind

Location: Cayenne / Rochambeau

Current Time: Jul 3, 2015 at 11:42:42 PM

Latest Report: Jul 3, 2015 at 11:00 PM


Visibility: N/A

Pressure: 29.95 "Hg

Humidity: 94%

Dew point: 73 °F

Location of CayenneLocation

Historic Weather in Cayenne — Graph

°F

Cayenne temperature yesterday

Maximum temperature yesterday: 88 °F (at 2:30 PM)
Minimum temperature yesterday: 73 °F (at 7:30 AM)
Average temperature yesterday: 79 °F

Past Weeks' High & Low Weather Summary

 TemperatureHumidityPressure
High90 °F (Jun 20, 1:30 PM)100% (Jun 19, 5:30 AM)30.07 "Hg (Jun 19, 5:30 AM)
Low72 °F (Jun 25, 5:30 AM)55% (Jun 26, 11:30 AM)29.86 "Hg (Jun 30, 3:00 PM)
Average80 °F84%29.96 "Hg
* Reported Jun 18 10:00 PM — Jul 3 10:30 PM, Cayenne, Weather by CustomWeather, © 2015

Note: Actual official high and low records may vary slightly from our data, if they occured in-between our weather recording intervals... More about our weather records

Advertising

Cayenne weather history for previous 24 hours

 ConditionsComfort  
Time TempWeatherWind HumidityBarometerVisibility
10:30 PM
Fri, Jul 3
77 °FWarm.No wind89%29.95 "HgN/A
10:00 PM77 °FWarm.No wind89%29.92 "HgN/A
9:30 PM79 °FWarm.No wind84%29.92 "HgN/A
9:00 PM79 °FWarm.No wind84%29.92 "HgN/A
8:30 PM79 °FWarm.No wind89%29.92 "HgN/A
8:00 PM81 °FWarm.No wind84%29.92 "HgN/A
7:30 PM81 °FWarm.3 mph79%29.89 "HgN/A
7:00 PM82 °FPassing clouds.3 mph79%29.89 "HgN/A
6:30 PM84 °FWarm.6 mph70%29.89 "HgN/A
6:00 PM84 °FWarm.9 mph70%29.89 "HgN/A
5:30 PM86 °FWarm.9 mph66%29.86 "HgN/A
5:00 PM88 °FWarm.9 mph62%29.86 "HgN/A
4:30 PM88 °FWarm.10 mph55%29.86 "HgN/A
4:00 PM88 °FPassing clouds.10 mph59%29.86 "HgN/A
3:30 PM88 °FWarm.10 mph62%29.86 "HgN/A
3:00 PM90 °FPassing clouds.10 mph59%29.89 "HgN/A
2:30 PM88 °FWarm.10 mph59%29.89 "HgN/A
2:00 PM88 °FPassing clouds.12 mph62%29.92 "HgN/A
1:30 PM88 °FPassing clouds.12 mph62%29.92 "HgN/A
1:00 PM88 °FBroken clouds.12 mph66%29.92 "HgN/A
12:30 PM88 °FScattered clouds.12 mph62%29.95 "HgN/A
12:00 PM88 °FPartly sunny.8 mph62%29.95 "HgN/A
11:30 AM88 °FPartly sunny.10 mph66%29.95 "HgN/A
11:00 AM86 °FScattered clouds.13 mph66%29.95 "HgN/A
10:30 AM86 °FBroken clouds.12 mph70%29.95 "HgN/A
10:00 AM84 °FPartly sunny.10 mph74%29.95 "HgN/A
9:30 AM86 °FScattered clouds.No wind75%29.95 "HgN/A
9:00 AM82 °FPassing clouds.2 mph79%29.95 "HgN/A
8:30 AM81 °FPartly sunny.No wind84%29.95 "HgN/A
8:00 AM77 °FPartly sunny.No wind94%29.95 "HgN/A
7:30 AM75 °FRain. Fog.No wind100%29.92 "Hg2 mi
7:00 AM75 °FPassing clouds.No wind94%29.92 "HgN/A
6:30 AM73 °FPartly sunny.No wind100%29.92 "HgN/A
6:00 AM73 °FPassing clouds.No wind100%29.89 "HgN/A
5:30 AM75 °FPartly cloudy.No wind94%29.89 "HgN/A
5:00 AM75 °FPassing clouds.No wind94%29.89 "HgN/A
4:30 AM75 °FPassing clouds.1 mph94%29.89 "HgN/A
4:00 AM73 °FPartly cloudy.No wind100%29.89 "HgN/A
3:30 AM73 °FPassing clouds.No wind94%29.89 "HgN/A
3:00 AM73 °FPassing clouds.No wind100%29.89 "HgN/A
2:30 AM75 °FPassing clouds.No wind94%29.92 "HgN/A
2:00 AM75 °FPassing clouds.No wind94%29.92 "HgN/A
1:30 AM75 °FPassing clouds.No wind94%29.92 "HgN/A
1:00 AM75 °FPassing clouds.No wind94%29.95 "HgN/A
12:30 AM75 °FMild.No wind94%29.95 "HgN/A
12:00 AM75 °FPassing clouds.No wind94%29.95 "HgN/A
11:30 PM
Thu, Jul 2
75 °FPassing clouds.No wind100%29.95 "HgN/A
11:00 PM75 °FPassing clouds.No wind94%29.95 "HgN/A
Weather by CustomWeather, © 2015

See weather overviewHow to use our weather pages